• In Deutschland
  • Länderverzeichnis
  • Für 7 Tage
  • Wassertemperatur
  • Satellitenkarten
  • Wetterkarte
  • Widgets
  • user-avatar
    Anmelden

    Stündliche Wetter Megri

    Heute, 26 Juli, Mittwoch

    Zeit Temperatur Niederschläge Wind Luftdruck Luftfeuchtigkeit
    00:00 +20°C° 0 mm 3 m/S 621 mmHg 64%
    01:00 +19°C° 0 mm 3 m/S 620 mmHg 65%
    02:00 +19°C° 0 mm 2 m/S 620 mmHg 65%
    03:00 +19°C° 0 mm 2 m/S 620 mmHg 66%
    04:00 +19°C° 0 mm 2 m/S 621 mmHg 65%
    05:00 +19°C° 0 mm 2 m/S 621 mmHg 63%
    06:00 +19°C° 0 mm 2 m/S 621 mmHg 62%
    07:00 +21°C° 0 mm 2 m/S 622 mmHg 53%
    08:00 +24°C° 0 mm 2 m/S 622 mmHg 45%
    09:00 +25°C° 0 mm 2 m/S 623 mmHg 39%
    10:00 +27°C° 0 mm 2 m/S 623 mmHg 35%
    11:00 +28°C° 0 mm 2 m/S 623 mmHg 31%
    12:00 +29°C° 0 mm 1 m/S 623 mmHg 27%
    13:00 +30°C° 0 mm 2 m/S 623 mmHg 26%
    14:00 +30°C° 0 mm 2 m/S 623 mmHg 24%
    15:00 +31°C° 0 mm 2 m/S 623 mmHg 23%
    16:00 +30°C° 0 mm 3 m/S 623 mmHg 26%
    17:00 +29°C° 0 mm 3 m/S 623 mmHg 29%
    18:00 +29°C° 0 mm 3 m/S 623 mmHg 31%
    19:00 +27°C° 0,1 mm 3 m/S 623 mmHg 38%
    20:00 +25°C° 0,1 mm 3 m/S 623 mmHg 44%
    21:00 +22°C° 0,1 mm 3 m/S 622 mmHg 51%
    22:00 +22°C° 0 mm 3 m/S 622 mmHg 53%
    23:00 +21°C° 0 mm 3 m/S 623 mmHg 55%

    Morgen, 27 Juli, Donnerstag

    Zeit Temperatur Niederschläge Wind Luftdruck Luftfeuchtigkeit
    00:00 +21°C° 0 mm 2 m/S 623 mmHg 57%
    01:00 +20°C° 0 mm 2 m/S 623 mmHg 58%
    02:00 +20°C° 0 mm 2 m/S 622 mmHg 59%
    03:00 +19°C° 0 mm 2 m/S 622 mmHg 60%
    04:00 +20°C° 0 mm 2 m/S 623 mmHg 59%
    05:00 +20°C° 0 mm 2 m/S 623 mmHg 58%
    06:00 +20°C° 0 mm 2 m/S 623 mmHg 57%
    07:00 +23°C° 0 mm 2 m/S 624 mmHg 49%
    08:00 +25°C° 0 mm 2 m/S 625 mmHg 41%
    09:00 +27°C° 0 mm 3 m/S 625 mmHg 34%
    10:00 +28°C° 0 mm 3 m/S 625 mmHg 31%
    11:00 +29°C° 0 mm 3 m/S 626 mmHg 28%
    12:00 +30°C° 0 mm 3 m/S 626 mmHg 25%
    13:00 +31°C° 0 mm 3 m/S 626 mmHg 24%
    14:00 +33°C° 0 mm 3 m/S 625 mmHg 23%
    15:00 +33°C° 0 mm 3 m/S 625 mmHg 22%
    16:00 +32°C° 0 mm 4 m/S 625 mmHg 24%
    17:00 +32°C° 0 mm 4 m/S 625 mmHg 26%
    18:00 +30°C° 0 mm 5 m/S 625 mmHg 28%
    19:00 +28°C° 0 mm 4 m/S 624 mmHg 33%
    20:00 +26°C° 0 mm 4 m/S 624 mmHg 37%
    21:00 +23°C° 0 mm 4 m/S 624 mmHg 42%
    22:00 +24°C° 0 mm 3 m/S 624 mmHg 43%
    23:00 +22°C° 0 mm 3 m/S 624 mmHg 45%

    übermorgen, 28 Juli, Freitag

    Zeit Temperatur Niederschläge Wind Luftdruck Luftfeuchtigkeit
    00:00 +21°C° 0 mm 3 m/S 624 mmHg 47%
    01:00 +21°C° 0 mm 3 m/S 624 mmHg 48%
    02:00 +21°C° 0 mm 2 m/S 624 mmHg 50%
    03:00 +20°C° 0 mm 2 m/S 624 mmHg 51%
    04:00 +21°C° 0 mm 2 m/S 624 mmHg 50%
    05:00 +21°C° 0 mm 2 m/S 624 mmHg 48%
    06:00 +21°C° 0 mm 2 m/S 624 mmHg 47%
    07:00 +25°C° 0 mm 2 m/S 625 mmHg 40%
    08:00 +27°C° 0 mm 2 m/S 625 mmHg 33%
    09:00 +29°C° 0 mm 2 m/S 626 mmHg 26%
    10:00 +30°C° 0 mm 2 m/S 626 mmHg 23%
    11:00 +32°C° 0 mm 2 m/S 627 mmHg 20%
    12:00 +35°C° 0 mm 2 m/S 627 mmHg 17%
    13:00 +35°C° 0 mm 2 m/S 627 mmHg 16%
    14:00 +36°C° 0 mm 2 m/S 626 mmHg 14%
    15:00 +37°C° 0 mm 3 m/S 626 mmHg 13%
    16:00 +36°C° 0 mm 3 m/S 626 mmHg 14%
    17:00 +35°C° 0 mm 3 m/S 626 mmHg 15%
    18:00 +35°C° 0 mm 2 m/S 625 mmHg 16%
    19:00 +31°C° 0 mm 2 m/S 625 mmHg 21%
    20:00 +29°C° 0 mm 2 m/S 625 mmHg 25%
    21:00 +27°C° 0 mm 2 m/S 624 mmHg 30%
    22:00 +26°C° 0 mm 2 m/S 624 mmHg 33%
    23:00 +26°C° 0 mm 2 m/S 624 mmHg 36%

    29 Juli, Samstag

    Zeit Temperatur Niederschläge Wind Luftdruck Luftfeuchtigkeit
    00:00 +25°C° 0 mm 2 m/S 624 mmHg 39%
    01:00 +24°C° 0 mm 2 m/S 624 mmHg 40%
    02:00 +24°C° 0 mm 1 m/S 624 mmHg 42%
    03:00 +23°C° 0 mm 1 m/S 624 mmHg 43%
    04:00 +23°C° 0 mm 1 m/S 624 mmHg 42%
    05:00 +24°C° 0 mm 1 m/S 624 mmHg 42%
    06:00 +24°C° 0 mm 1 m/S 625 mmHg 41%
    07:00 +27°C° 0 mm 1 m/S 626 mmHg 34%
    08:00 +29°C° 0 mm 1 m/S 626 mmHg 27%
    09:00 +31°C° 0 mm 1 m/S 627 mmHg 19%
    10:00 +32°C° 0 mm 1 m/S 627 mmHg 17%
    11:00 +34°C° 0 mm 2 m/S 627 mmHg 15%
    12:00 +35°C° 0 mm 2 m/S 627 mmHg 13%
    13:00 +36°C° 0 mm 2 m/S 627 mmHg 12%
    14:00 +36°C° 0 mm 2 m/S 627 mmHg 11%
    15:00 +37°C° 0 mm 2 m/S 626 mmHg 10%
    16:00 +36°C° 0 mm 2 m/S 626 mmHg 11%
    17:00 +35°C° 0 mm 2 m/S 626 mmHg 12%
    18:00 +35°C° 0 mm 2 m/S 626 mmHg 13%
    19:00 +32°C° 0 mm 2 m/S 626 mmHg 18%
    20:00 +30°C° 0 mm 3 m/S 625 mmHg 22%
    21:00 +28°C° 0 mm 3 m/S 625 mmHg 27%
    22:00 +27°C° 0 mm 3 m/S 625 mmHg 31%
    23:00 +26°C° 0 mm 3 m/S 625 mmHg 34%

    30 Juli, Sonntag

    Zeit Temperatur Niederschläge Wind Luftdruck Luftfeuchtigkeit
    00:00 +25°C° 0 mm 3 m/S 625 mmHg 37%
    01:00 +25°C° 0 mm 3 m/S 625 mmHg 38%
    02:00 +24°C° 0 mm 3 m/S 625 mmHg 39%
    03:00 +22°C° 0 mm 3 m/S 625 mmHg 39%
    04:00 +22°C° 0 mm 3 m/S 625 mmHg 40%
    05:00 +22°C° 0 mm 3 m/S 626 mmHg 40%
    06:00 +22°C° 0 mm 3 m/S 626 mmHg 40%
    07:00 +25°C° 0 mm 3 m/S 627 mmHg 38%
    08:00 +26°C° 0 mm 4 m/S 627 mmHg 36%
    09:00 +28°C° 0 mm 4 m/S 628 mmHg 34%
    10:00 +29°C° 0 mm 4 m/S 628 mmHg 31%
    11:00 +32°C° 0 mm 4 m/S 628 mmHg 28%
    12:00 +33°C° 0 mm 4 m/S 628 mmHg 26%
    13:00 +33°C° 0 mm 5 m/S 628 mmHg 26%
    14:00 +34°C° 0 mm 5 m/S 628 mmHg 26%
    15:00 +34°C° 0 mm 5 m/S 627 mmHg 26%
    16:00 +33°C° 0 mm 6 m/S 627 mmHg 30%
    17:00 +32°C° 0 mm 6 m/S 627 mmHg 35%
    18:00 +29°C° 0 mm 7 m/S 626 mmHg 40%
    19:00 +28°C° 0 mm 6 m/S 626 mmHg 44%
    20:00 +26°C° 0 mm 6 m/S 626 mmHg 49%
    21:00 +25°C° 0 mm 5 m/S 626 mmHg 53%
    22:00 +23°C° 0 mm 5 m/S 626 mmHg 56%
    23:00 +22°C° 0 mm 4 m/S 626 mmHg 59%

    31 Juli, Montag

    Zeit Temperatur Niederschläge Wind Luftdruck Luftfeuchtigkeit
    00:00 +21°C° 0 mm 4 m/S 626 mmHg 61%
    01:00 +21°C° 0 mm 4 m/S 626 mmHg 63%
    02:00 +20°C° 0 mm 4 m/S 626 mmHg 66%
    03:00 +20°C° 0 mm 3 m/S 626 mmHg 68%
    04:00 +20°C° 0 mm 4 m/S 626 mmHg 68%
    05:00 +20°C° 0 mm 4 m/S 626 mmHg 68%
    06:00 +19°C° 0 mm 4 m/S 627 mmHg 68%
    07:00 +21°C° 0 mm 4 m/S 627 mmHg 59%
    08:00 +23°C° 0 mm 4 m/S 628 mmHg 51%
    09:00 +26°C° 0 mm 5 m/S 629 mmHg 42%
    10:00 +27°C° 0 mm 5 m/S 629 mmHg 38%
    11:00 +28°C° 0 mm 5 m/S 629 mmHg 34%
    12:00 +30°C° 0 mm 6 m/S 629 mmHg 30%
    13:00 +30°C° 0 mm 6 m/S 629 mmHg 29%
    14:00 +32°C° 0 mm 6 m/S 628 mmHg 28%
    15:00 +32°C° 0 mm 6 m/S 628 mmHg 27%
    16:00 +30°C° 0 mm 6 m/S 628 mmHg 30%
    17:00 +29°C° 0 mm 6 m/S 628 mmHg 33%
    18:00 +28°C° 0 mm 6 m/S 627 mmHg 35%
    19:00 +26°C° 0 mm 6 m/S 627 mmHg 40%
    20:00 +25°C° 0 mm 5 m/S 627 mmHg 44%
    21:00 +22°C° 0 mm 4 m/S 627 mmHg 48%
    22:00 +21°C° 0 mm 4 m/S 627 mmHg 50%
    23:00 +21°C° 0 mm 4 m/S 627 mmHg 51%
    Mehr zeigen